Simultaneous Nadir Overpasses (SNOs) Predictions

Prediction of SNOs between AQUA and METOP-C Satellite Orbit:

Table of predicted SNOs for the next 14.0 days since TLE Epoch: 3/8/2019
Index Date (AQUA) Time (AQUA) Lat,Lon (AQUA) SZA (AQUA ) Date (METOP-C) Time (METOP-C) Lat,Lon (METOP-C) SZA (METOP-C ) Distance(km) Time Diff (sec)
1 03/08/2019 22:31:23 73.81,-163.53 78.61 03/08/2019 22:31:10 73.79,-163.57 78.60 3.03 13
2 03/08/2019 23:20:50 -73.85, 4.03 101.36 03/08/2019 23:21:50 -73.86, 3.93 101.36 3.07 60
3 03/11/2019 17:16:11 -73.71, 95.50 102.60 03/11/2019 17:14:58 -73.60, 95.06 102.67 18.02 73
4 03/11/2019 18:05:40 73.82, -97.11 77.51 03/11/2019 18:05:34 73.81, -97.11 77.51 1.08 6
5 03/11/2019 18:55:08 -73.91, 70.34 102.41 03/11/2019 18:56:14 -73.88, 70.38 102.45 3.34 66
6 03/14/2019 12:50:28 -73.77, 161.80 103.65 03/14/2019 12:49:18 -73.77, 161.86 103.64 2.03 70
7 03/14/2019 13:39:56 73.83, -30.71 76.41 03/14/2019 13:39:57 73.83, -30.66 76.41 1.56 1
8 03/14/2019 14:29:24 -73.92, 136.75 103.51 03/14/2019 14:30:37 -73.90, 136.84 103.55 3.53 73
9 03/17/2019 08:24:44 -73.74,-131.70 104.80 03/17/2019 08:23:43 -73.74,-131.80 104.79 3.33 61
10 03/17/2019 09:14:12 73.80, 35.80 75.26 03/17/2019 09:14:22 73.80, 35.68 75.26 3.57 10
11 03/17/2019 10:03:46 -74.20,-157.45 104.33 03/17/2019 10:04:56 -74.16,-156.11 104.43 40.99 70
12 03/20/2019 03:59:01 -73.76, -65.32 105.89 03/20/2019 03:58:07 -73.76, -65.35 105.89 1.20 54
13 03/20/2019 04:48:29 73.83, 102.17 74.17 03/20/2019 04:48:46 73.82, 102.14 74.16 1.27 17




NCC Satellite Simultaneous Nadir Overpasses (SNOs) Prediction Service
